FW2969 Weather Reports


Display with metric or nautical units.
time (UTC)temp
F
wind
direction
speed
MPH
gust
MPH
rain 1hr
in
rain 24hr
in
rain mn
in
humidity
%
barometer
mb
20201023214529 74 229 2.0 10.0 0.00 0.00 0.00 19 1014.0
20201023213056 74 261 1.0 14.0 0.00 0.00 0.00 19 1014.0
20201023211532 73 227 1.0 7.0 0.00 0.00 0.00 20 1014.2
20201023210023 73 202 1.0 9.0 0.00 0.00 0.00 20 1014.4
20201023204504 73 231 1.0 8.0 0.00 0.00 0.00 20 1014.6
20201023203008 73 232 1.0 8.0 0.00 0.00 0.00 20 1014.8
20201023201531 73 211 1.0 6.0 0.00 0.00 0.00 21 1014.9
20201023200218 73 214 0.0 9.0 0.00 0.00 0.00 21 1015.0
20201023200025 73 220 1.0 9.0 0.00 0.00 0.00 20 1015.0
20201023193132 74 215 0.0 6.0 0.00 0.00 0.00 21 1015.0
20201023191732 74 223 0.0 5.0 0.00 0.00 0.00 20 1015.1
20201023190134 74 222 1.0 9.0 0.00 0.00 0.00 20 1015.1
20201023184626 73 208 1.0 7.0 0.00 0.00 0.00 21 1015.2
20201023183231 73 213 0.0 1.0 0.00 0.00 0.00 22 1015.2
20201023181626 73 201 0.0 3.0 0.00 0.00 0.00 21 1015.2
20201023180112 73 223 0.0 3.0 0.00 0.00 0.00 22 1015.2
20201023174710 74 221 0.0 4.0 0.00 0.00 0.00 22 1015.1
20201023173137 74 209 0.0 4.0 0.00 0.00 0.00 23 1015.2
20201023171702 74 212 0.0 2.0 0.00 0.00 0.00 23 1015.3
20201023170230 74 213 0.0 2.0 0.00 0.00 0.00 24 1015.3
20201023164759 74 214 0.0 2.0 0.00 0.00 0.00 24 1015.2
20201023163119 74 202 0.0 1.0 0.00 0.00 0.00 27 1015.3
20201023161736 75 194 0.0 0.0 0.00 0.00 0.00 33 1015.2
20201023160125 76 192 0.0 0.0 0.00 0.00 0.00 33 1015.1
20201023154714 76 250 0.0 0.0 0.00 0.00 0.00 32 1015.0
20201023153119 76 250 0.0 0.0 0.00 0.00 0.00 33 1014.9
20201023151616 77 252 0.0 0.0 0.00 0.00 0.00 34 1014.9
20201023150153 78 315 0.0 0.0 0.00 0.00 0.00 32 1014.7
20201023144551 79 319 0.0 0.0 0.00 0.00 0.00 32 1014.7
20201023143138 79 319 0.0 0.0 0.00 0.00 0.00 29 1014.6
20201023141724 80 311 0.0 5.0 0.00 0.00 0.00 30 1014.5
20201023140213 81 292 0.0 5.0 0.00 0.00 0.00 33 1014.5
20201023134721 81 321 2.0 6.0 0.00 0.00 0.00 32 1014.5
20201023133111 81 317 2.0 8.0 0.00 0.00 0.00 35 1014.5
20201023131658 81 337 2.0 6.0 0.00 0.00 0.00 36 1014.4
20201023130128 81 346 1.0 5.0 0.00 0.00 0.00 39 1014.4
20201023124653 80 360 2.0 8.0 0.00 0.00 0.00 46 1014.5
20201023123153 82 322 1.0 7.0 0.00 0.00 0.00 48 1014.5
20201023121625 82 318 0.0 3.0 0.00 0.00 0.00 48 1014.6
20201023120133 81 346 0.0 3.0 0.00 0.00 0.00 54 1014.7
20201023114701 80 16 0.0 5.0 0.00 0.00 0.00 55 1014.7
20201023113056 81 69 0.0 4.0 0.00 0.00 0.00 55 1014.9
20201023111628 80 40 0.0 5.0 0.00 0.00 0.00 54 1015.0
20201023110128 82 66 1.0 6.0 0.00 0.00 0.00 49 1015.1
20201023104616 82 34 2.0 14.0 0.00 0.00 0.00 41 1015.4
20201023103044 82 257 5.0 10.0 0.00 0.00 0.00 41 1015.5
20201023101533 82 296 1.0 14.0 0.00 0.00 0.00 34 1015.7
20201023100035 82 349 3.0 11.0 0.00 0.00 0.00 32 1015.9
20201023094535 81 343 3.0 9.0 0.00 0.00 0.00 45 1016.1
20201023093029 80 355 3.0 10.0 0.00 0.00 0.00 48 1016.2
20201023091527 81 25 1.0 6.0 0.00 0.00 0.00 40 1016.5
20201023090050 84 284 1.0 13.0 0.00 0.00 0.00 16 1016.6
20201023084522 84 287 4.0 15.0 0.00 0.00 0.00 16 1016.5
20201023083058 84 276 4.0 17.0 0.00 0.00 0.00 16 1016.8
20201023081536 84 236 3.0 10.0 0.00 0.00 0.00 17 1016.9
20201023080035 83 254 2.0 11.0 0.00 0.00 0.00 18 1016.9
20201023074637 83 261 5.0 14.0 0.00 0.00 0.00 17 1016.9
20201023073029 83 244 2.0 11.0 0.00 0.00 0.00 17 1016.9
20201023071520 82 221 6.0 17.0 0.00 0.00 0.00 18 1016.9
20201023070021 82 273 2.0 9.0 0.00 0.00 0.00 18 1016.8
20201023064513 81 245 2.0 10.0 0.00 0.00 0.00 19 1016.8
20201023063212 80 299 2.0 15.0 0.00 0.00 0.00 19 1016.8
20201023061659 79 226 1.0 9.0 0.00 0.00 0.00 21 1016.8
20201023060139 79 211 1.0 9.0 0.00 0.00 0.00 21 1016.8
20201023054636 78 207 1.0 8.0 0.00 0.00 0.00 23 1016.8
20201023053121 77 225 0.0 9.0 0.00 0.00 0.00 24 1016.7
20201023051639 76 224 2.0 12.0 0.00 0.00 0.00 23 1016.5
20201023051519 76 242 3.0 12.0 0.00 0.00 0.00 23 1016.5
20201023050127 75 215 2.0 10.0 0.00 0.00 0.00 24 1016.2
20201023044548 74 208 3.0 11.0 0.00 0.00 0.00 25 1016.3
20201023043107 73 239 2.0 10.0 0.00 0.00 0.00 26 1016.1
20201023041617 72 239 4.0 11.0 0.00 0.00 0.00 27 1016.2
20201023040116 71 252 2.0 10.0 0.00 0.00 0.00 28 1016.2
20201023034630 71 217 0.0 5.0 0.00 0.00 0.00 27 1016.0
20201023033100 71 219 1.0 9.0 0.00 0.00 0.00 28 1016.0
20201023031542 71 224 1.0 7.0 0.00 0.00 0.00 28 1016.1
20201023030046 72 232 2.0 7.0 0.00 0.00 0.00 28 1016.1
20201023024558 72 242 2.0 8.0 0.00 0.00 0.00 27 1016.1
20201023023102 73 265 2.0 13.0 0.00 0.00 0.00 27 1015.9
20201023021559 73 279 3.0 10.0 0.00 0.00 0.00 28 1015.8
20201023020123 73 194 2.0 9.0 0.00 0.00 0.00 28 1015.9
20201023014612 73 292 3.0 9.0 0.00 0.00 0.00 28 1015.6
20201023013032 72 243 3.0 9.0 0.00 0.00 0.00 30 1015.6
20201023011527 72 274 0.0 3.0 0.00 0.00 0.00 30 1015.5
20201023010035 73 260 0.0 7.0 0.00 0.00 0.00 29 1015.5
20201023004610 73 295 1.0 7.0 0.00 0.00 0.00 30 1015.5
20201023003029 73 228 0.0 10.0 0.00 0.00 0.00 30 1015.6
20201023001525 73 122 0.0 4.0 0.00 0.00 0.00 30 1015.5
20201023000034 73 289 3.0 7.0 0.00 0.00 0.00 31 1015.8
20201022234609 73 294 1.0 9.0 0.00 0.00 0.00 32 1016.0
20201022233022 72 263 0.0 8.0 0.00 0.00 0.00 34 1016.1
20201022231522 73 186 0.0 4.0 0.00 0.00 0.00 34 1016.2
20201022230031 73 240 0.0 10.0 0.00 0.00 0.00 34 1016.3
20201022224518 73 248 0.0 6.0 0.00 0.00 0.00 33 1016.4
20201022223035 73 227 0.0 4.0 0.00 0.00 0.00 33 1016.5
20201022221516 74 242 2.0 10.0 0.00 0.00 0.00 33 1016.5
20201022220009 74 233 2.0 10.0 0.00 0.00 0.00 33 1016.5